| time (UTC) | temp F | wind direction | speed MPH | gust MPH | rain 1hr in | rain 24hr in | rain mn in | humidity % | barometer mb |
| 20260506200055 | 53 | 290 | 3.0 | 4.0 | 0.00 | 0.04 | 1.17 | 95 | 1009.4 |
| 20260506195814 | 53 | 4 | 3.0 | 4.0 | 0.00 | 0.04 | 1.17 | 95 | 1009.0 |
| 20260506195535 | 53 | 324 | 2.0 | 5.0 | 0.00 | 0.04 | 1.17 | 94 | 1009.2 |
| 20260506194557 | 53 | 277 | 1.0 | 5.0 | 0.00 | 0.04 | 1.17 | 93 | 1009.0 |
| 20260506194053 | 54 | 15 | 1.0 | 4.0 | 0.00 | 0.04 | 1.17 | 93 | 1008.8 |
| 20260506193556 | 53 | 237 | 1.0 | 5.0 | 0.00 | 0.04 | 1.17 | 93 | 1008.8 |
| 20260506193549 | 53 | 107 | 2.0 | 5.0 | 0.00 | 0.04 | 1.17 | 93 | 1008.8 |
| 20260506193257 | 54 | 5 | 1.0 | 6.0 | 0.00 | 0.04 | 1.17 | 93 | 1008.7 |
| 20260506192053 | 54 | 22 | 4.0 | 6.0 | 0.00 | 0.04 | 1.17 | 93 | 1008.6 |
| 20260506191555 | 53 | 306 | 3.0 | 5.0 | 0.00 | 0.04 | 1.17 | 94 | 1008.5 |
| 20260506191053 | 53 | 203 | 2.0 | 5.0 | 0.00 | 0.04 | 1.17 | 95 | 1008.7 |
| 20260506190555 | 53 | 267 | 2.0 | 5.0 | 0.00 | 0.04 | 1.17 | 96 | 1008.6 |
| 20260506190053 | 53 | 177 | 0.0 | 4.0 | 0.00 | 0.04 | 1.17 | 97 | 1008.3 |
| 20260506185814 | 53 | 350 | 4.0 | 5.0 | 0.00 | 0.04 | 1.17 | 97 | 1008.2 |
| 20260506185319 | 53 | 201 | 0.0 | 5.0 | 0.01 | 0.04 | 1.17 | 97 | 1007.9 |
| 20260506184559 | 53 | 221 | 1.0 | 4.0 | 0.02 | 0.04 | 1.17 | 97 | 1007.9 |
| 20260506184317 | 53 | 300 | 1.0 | 3.0 | 0.04 | 0.04 | 1.17 | 97 | 1007.9 |
| 20260506183555 | 53 | 238 | 2.0 | 3.0 | 0.04 | 0.04 | 1.17 | 96 | 1007.9 |
| 20260506183053 | 53 | 137 | 0.0 | 6.0 | 0.04 | 0.04 | 1.17 | 96 | 1007.9 |
| 20260506182558 | 53 | 319 | 2.0 | 6.0 | 0.04 | 0.04 | 1.17 | 96 | 1007.6 |
| 20260506182053 | 53 | 267 | 3.0 | 5.0 | 0.04 | 0.04 | 1.17 | 96 | 1007.6 |
| 20260506182039 | 53 | 246 | 0.0 | 5.0 | 0.04 | 0.04 | 1.17 | 95 | 1007.6 |
| 20260506181053 | 53 | 255 | 5.0 | 5.0 | 0.04 | 0.04 | 1.17 | 93 | 1007.9 |
| 20260506181007 | 54 | 232 | 2.0 | 5.0 | 0.04 | 0.04 | 1.17 | 90 | 1006.9 |
| 20260506180901 | 54 | 185 | 2.0 | 3.0 | 0.04 | 0.04 | 1.17 | 92 | 1007.6 |
| 20260506180054 | 54 | 59 | 1.0 | 4.0 | 0.04 | 0.04 | 1.17 | 91 | 1007.3 |
| 20260506175053 | 55 | 199 | 1.0 | 5.0 | 0.03 | 0.03 | 1.16 | 89 | 1007.0 |
| 20260506174556 | 56 | 331 | 2.0 | 5.0 | 0.02 | 0.02 | 1.16 | 85 | 1007.0 |
| 20260506174057 | 56 | 158 | 1.0 | 4.0 | 0.00 | 0.00 | 1.13 | 82 | 1007.1 |
| 20260506173555 | 56 | 17 | 1.0 | 3.0 | 0.00 | 0.00 | 1.13 | 84 | 1007.1 |
| 20260506173053 | 56 | 233 | 0.0 | 4.0 | 0.00 | 0.00 | 1.13 | 82 | 1006.9 |
| 20260506172827 | 57 | 289 | 2.0 | 5.0 | 0.00 | 0.00 | 1.13 | 81 | 1006.9 |
| 20260506172310 | 57 | 145 | 2.0 | 5.0 | 0.00 | 0.00 | 1.13 | 79 | 1006.9 |
| 20260506171555 | 57 | 20 | 2.0 | 7.0 | 0.00 | 0.00 | 1.13 | 79 | 1006.8 |
| 20260506171320 | 57 | 180 | 1.0 | 7.0 | 0.00 | 0.00 | 1.13 | 78 | 1006.6 |
| 20260506170823 | 57 | 263 | 1.0 | 7.0 | 0.00 | 0.00 | 1.13 | 76 | 1006.5 |
| 20260506170053 | 58 | 251 | 2.0 | 7.0 | 0.00 | 0.00 | 1.13 | 77 | 1006.4 |
| 20260506165817 | 58 | 249 | 2.0 | 7.0 | 0.00 | 0.00 | 1.13 | 76 | 1006.3 |
| 20260506165320 | 58 | 138 | 4.0 | 7.0 | 0.00 | 0.00 | 1.13 | 77 | 1006.3 |
| 20260506164557 | 58 | 325 | 4.0 | 7.0 | 0.00 | 0.00 | 1.13 | 76 | 1006.3 |
| 20260506164053 | 58 | 244 | 3.0 | 6.0 | 0.00 | 0.00 | 1.13 | 76 | 1006.3 |
| 20260506164044 | 58 | 253 | 2.0 | 8.0 | 0.00 | 0.00 | 1.13 | 76 | 1006.0 |
| 20260506163054 | 58 | 307 | 4.0 | 8.0 | 0.00 | 0.00 | 1.13 | 75 | 1006.2 |
| 20260506162818 | 58 | 25 | 2.0 | 9.0 | 0.00 | 0.00 | 1.13 | 76 | 1006.3 |
| 20260506162054 | 57 | 20 | 2.0 | 9.0 | 0.00 | 0.00 | 1.13 | 76 | 1006.2 |
| 20260506161820 | 58 | 200 | 2.0 | 7.0 | 0.00 | 0.00 | 1.13 | 78 | 1006.1 |
| 20260506161052 | 58 | 78 | 6.0 | 11.0 | 0.00 | 0.00 | 1.13 | 77 | 1006.1 |
| 20260506161043 | 57 | 249 | 3.0 | 11.0 | 0.00 | 0.00 | 1.13 | 77 | 1006.0 |
| 20260506160053 | 57 | 258 | 2.0 | 8.0 | 0.00 | 0.00 | 1.13 | 78 | 1006.0 |
| 20260506155555 | 57 | 247 | 2.0 | 8.0 | 0.00 | 0.00 | 1.13 | 79 | 1006.0 |
| 20260506155053 | 57 | 348 | 2.0 | 11.0 | 0.00 | 0.00 | 1.13 | 79 | 1006.1 |
| 20260506154559 | 57 | 177 | 4.0 | 11.0 | 0.00 | 0.00 | 1.13 | 80 | 1006.1 |
| 20260506154056 | 57 | 202 | 3.0 | 11.0 | 0.00 | 0.00 | 1.13 | 78 | 1006.3 |
| 20260506154018 | 57 | 299 | 5.0 | 10.0 | 0.00 | 0.00 | 1.13 | 78 | 1005.9 |
| 20260506153555 | 57 | 346 | 3.0 | 8.0 | 0.00 | 0.00 | 1.13 | 79 | 1006.1 |
| 20260506152553 | 57 | 314 | 4.0 | 12.0 | 0.00 | 0.00 | 1.13 | 79 | 1006.1 |
| 20260506152053 | 57 | 77 | 4.0 | 12.0 | 0.00 | 0.00 | 1.13 | 78 | 1006.1 |
| 20260506151553 | 57 | 228 | 3.0 | 10.0 | 0.00 | 0.00 | 1.13 | 74 | 1007.1 |
| 20260506151057 | 58 | 147 | 2.0 | 12.0 | 0.00 | 0.00 | 1.13 | 73 | 1007.2 |
| 20260506150554 | 58 | 174 | 2.0 | 12.0 | 0.00 | 0.00 | 1.13 | 73 | 1007.2 |
| 20260506150051 | 58 | 10 | 4.0 | 8.0 | 0.00 | 0.00 | 1.13 | 73 | 1007.2 |
| 20260506145552 | 58 | 327 | 1.0 | 11.0 | 0.00 | 0.00 | 1.13 | 73 | 1007.2 |
| 20260506145545 | 58 | 219 | 1.0 | 11.0 | 0.00 | 0.00 | 1.13 | 73 | 1007.2 |
| 20260506144519 | 59 | 61 | 1.0 | 0.0 | 0.00 | 0.00 | 1.13 | 72 | 1007.2 |
| 20260506144129 | 59 | 57 | 1.0 | 6.0 | 0.00 | 0.00 | 1.13 | 73 | 1007.2 |
| 20260506143629 | 58 | 150 | 1.0 | 9.0 | 0.00 | 0.00 | 1.13 | 75 | 1007.3 |
| 20260506143128 | 58 | 314 | 1.0 | 9.0 | 0.00 | 0.00 | 1.13 | 76 | 1007.3 |
| 20260506142629 | 58 | 236 | 1.0 | 8.0 | 0.00 | 0.00 | 1.13 | 75 | 1007.2 |
| 20260506142352 | 58 | 261 | 0.0 | 10.0 | 0.00 | 0.00 | 1.13 | 75 | 1007.2 |
| 20260506141629 | 58 | 133 | 0.0 | 10.0 | 0.00 | 0.00 | 1.13 | 76 | 1007.1 |
| 20260506141128 | 58 | 191 | 1.0 | 7.0 | 0.00 | 0.00 | 1.13 | 76 | 1007.0 |
| 20260506140626 | 58 | 127 | 1.0 | 7.0 | 0.00 | 0.00 | 1.13 | 76 | 1007.1 |
| 20260506140611 | 58 | 277 | 0.0 | 5.0 | 0.00 | 0.00 | 1.13 | 77 | 1007.2 |
| 20260506135626 | 58 | 320 | 1.0 | 9.0 | 0.00 | 0.00 | 1.13 | 78 | 1007.1 |
| 20260506135618 | 58 | 297 | 1.0 | 9.0 | 0.00 | 0.00 | 1.13 | 79 | 1007.2 |
| 20260506134627 | 58 | 289 | 1.0 | 6.0 | 0.00 | 0.00 | 1.13 | 80 | 1007.3 |
| 20260506134349 | 57 | 328 | 1.0 | 6.0 | 0.00 | 0.00 | 1.13 | 79 | 1007.4 |
| 20260506133709 | 57 | 39 | 1.0 | 0.0 | 0.00 | 0.00 | 1.13 | 78 | 1007.5 |
| 20260506133443 | 58 | 39 | 1.0 | 0.0 | 0.00 | 0.00 | 1.13 | 78 | 1007.5 |
| 20260506133224 | 58 | 39 | 1.0 | 0.0 | 0.00 | 0.00 | 1.13 | 78 | 1007.5 |
| 20260506132817 | 58 | 311 | 1.0 | 7.0 | 0.00 | 1.13 | 1.13 | 80 | 1007.6 |
| 20260506132320 | 58 | 41 | 1.0 | 7.0 | 0.00 | 1.13 | 1.13 | 80 | 1007.5 |
| 20260506131545 | 57 | 328 | 0.0 | 4.0 | 0.00 | 1.13 | 1.13 | 85 | 1007.6 |
| 20260506131041 | 56 | 352 | 0.0 | 4.0 | 0.00 | 1.13 | 1.13 | 86 | 1007.6 |
| 20260506130319 | 56 | 328 | 0.0 | 3.0 | 0.00 | 1.13 | 1.13 | 87 | 1007.5 |
| 20260506130045 | 55 | 234 | 0.0 | 3.0 | 0.00 | 1.13 | 1.13 | 88 | 1007.5 |
| 20260506125319 | 55 | 168 | 0.0 | 0.0 | 0.01 | 1.13 | 1.13 | 89 | 1007.5 |
| 20260506124819 | 55 | 33 | 0.0 | 3.0 | 0.02 | 1.13 | 1.13 | 91 | 1007.4 |
| 20260506122816 | 52 | 25 | 0.0 | 0.0 | 0.94 | 1.13 | 1.13 | 93 | 1007.3 |
| 20260506122543 | 52 | 18 | 0.0 | 0.0 | 0.94 | 1.13 | 1.13 | 92 | 1007.4 |
| 20260506121819 | 51 | 104 | 1.0 | 10.0 | 0.94 | 1.13 | 1.13 | 93 | 1007.3 |
| 20260506121317 | 51 | 78 | 1.0 | 10.0 | 0.94 | 1.13 | 1.13 | 93 | 1007.2 |
| 20260506120816 | 51 | 53 | 0.0 | 6.0 | 0.94 | 1.13 | 1.13 | 93 | 1007.1 |
| 20260506120319 | 50 | 185 | 0.0 | 3.0 | 0.94 | 1.13 | 1.13 | 93 | 1006.8 |
| 20260506115816 | 50 | 69 | 0.0 | 2.0 | 0.94 | 1.13 | 1.13 | 93 | 1006.5 |
| 20260506115318 | 49 | 345 | 3.0 | 6.0 | 0.94 | 1.12 | 1.13 | 99 | 1006.4 |
| 20260506114318 | 48 | 307 | 2.0 | 8.0 | 0.83 | 0.98 | 0.99 | 98 | 1006.3 |
| 20260506114048 | 48 | 266 | 2.0 | 8.0 | 0.75 | 0.80 | 0.80 | 98 | 1008.1 |
| 20260506112537 | 56 | 294 | 2.0 | 6.0 | 0.18 | 0.18 | 0.18 | 99 | 1006.3 |
| 20260506111814 | 56 | 194 | 1.0 | 6.0 | 0.18 | 0.18 | 0.18 | 99 | 1006.3 |
| 20260506111538 | 56 | 182 | 2.0 | 5.0 | 0.18 | 0.18 | 0.18 | 99 | 1006.5 |
| 20260506110811 | 56 | 279 | 2.0 | 2.0 | 0.18 | 0.18 | 0.18 | 99 | 1006.3 |
| 20260506110537 | 56 | 327 | 0.0 | 5.0 | 0.18 | 0.18 | 0.18 | 99 | 1006.3 |
| 20260506105811 | 56 | 281 | 0.0 | 5.0 | 0.18 | 0.18 | 0.18 | 99 | 1006.4 |
| 20260506104814 | 56 | 156 | 3.0 | 6.0 | 0.17 | 0.17 | 0.17 | 98 | 1006.5 |
| 20260506104540 | 56 | 159 | 2.0 | 9.0 | 0.16 | 0.16 | 0.16 | 97 | 1006.3 |
| 20260506103811 | 56 | 170 | 5.0 | 9.0 | 0.05 | 0.05 | 0.08 | 96 | 1006.6 |
| 20260506103537 | 56 | 129 | 3.0 | 14.0 | 0.00 | 0.00 | 0.00 | 94 | 1006.3 |
| 20260506102811 | 57 | 157 | 6.0 | 14.0 | 0.00 | 0.00 | 0.00 | 93 | 1006.3 |
| 20260506102537 | 57 | 173 | 7.0 | 14.0 | 0.00 | 0.00 | 0.00 | 93 | 1006.1 |
| 20260506101313 | 57 | 182 | 5.0 | 13.0 | 0.00 | 0.00 | 0.00 | 93 | 1006.5 |
| 20260506101035 | 57 | 56 | 2.0 | 11.0 | 0.00 | 0.00 | 0.00 | 93 | 1006.3 |
| 20260506100312 | 57 | 167 | 2.0 | 11.0 | 0.00 | 0.00 | 0.00 | 93 | 1006.6 |
| 20260506095811 | 57 | 157 | 8.0 | 11.0 | 0.00 | 0.00 | 0.00 | 94 | 1006.5 |
| 20260506094811 | 56 | 158 | 8.0 | 14.0 | 0.00 | 0.00 | 0.00 | 94 | 1006.7 |
| 20260506094540 | 56 | 116 | 5.0 | 14.0 | 0.00 | 0.00 | 0.00 | 94 | 1006.5 |
| 20260506093313 | 56 | 190 | 3.0 | 9.0 | 0.00 | 0.00 | 0.00 | 95 | 1006.4 |
| 20260506092811 | 56 | 176 | 4.0 | 9.0 | 0.00 | 0.00 | 0.00 | 95 | 1006.5 |
| 20260506091810 | 56 | 157 | 6.0 | 9.0 | 0.00 | 0.00 | 0.00 | 95 | 1006.7 |
| 20260506091315 | 56 | 158 | 6.0 | 8.0 | 0.00 | 0.00 | 0.00 | 96 | 1006.5 |
| 20260506091029 | 56 | 177 | 3.0 | 12.0 | 0.00 | 0.00 | 0.00 | 96 | 1006.6 |
| 20260506090312 | 56 | 47 | 3.0 | 12.0 | 0.00 | 0.00 | 0.00 | 95 | 1006.6 |
| 20260506085811 | 56 | 161 | 7.0 | 10.0 | 0.00 | 0.00 | 0.00 | 95 | 1006.5 |
| 20260506085529 | 56 | 158 | 4.0 | 10.0 | 0.00 | 0.00 | 0.00 | 95 | 1006.5 |
| 20260506085038 | 56 | 202 | 5.0 | 11.0 | 0.00 | 0.00 | 0.00 | 96 | 1006.4 |
| 20260506084323 | 56 | 180 | 4.0 | 13.0 | 0.00 | 0.00 | 0.00 | 95 | 1006.4 |
| 20260506083814 | 55 | 189 | 8.0 | 11.0 | 0.00 | 0.00 | 0.00 | 96 | 1006.6 |
| 20260506083313 | 55 | 159 | 5.0 | 9.0 | 0.00 | 0.00 | 0.00 | 97 | 1006.6 |
| 20260506082811 | 56 | 180 | 6.0 | 13.0 | 0.00 | 0.00 | 0.00 | 97 | 1006.6 |
| 20260506082312 | 55 | 169 | 4.0 | 13.0 | 0.00 | 0.00 | 0.00 | 97 | 1006.7 |
| 20260506081814 | 55 | 172 | 6.0 | 13.0 | 0.00 | 0.00 | 0.00 | 98 | 1006.8 |
| 20260506081536 | 55 | 159 | 4.0 | 12.0 | 0.00 | 0.00 | 0.00 | 99 | 1006.5 |
| 20260506080810 | 55 | 158 | 10.0 | 12.0 | 0.00 | 0.00 | 0.00 | 99 | 1006.7 |
| 20260506080315 | 55 | 198 | 3.0 | 6.0 | 0.00 | 0.00 | 0.00 | 99 | 1006.3 |
| 20260506073312 | 55 | 176 | 1.0 | 4.0 | 0.00 | 0.00 | 0.00 | 99 | 1006.8 |
| 20260506072533 | 55 | 120 | 1.0 | 4.0 | 0.00 | 0.00 | 0.00 | 99 | 1007.1 |
| 20260506071313 | 55 | 178 | 2.0 | 4.0 | 0.00 | 0.00 | 0.00 | 98 | 1007.1 |
| 20260506070534 | 55 | 207 | 3.0 | 6.0 | 0.00 | 0.00 | 0.00 | 98 | 1007.1 |
| 20260506062036 | 55 | 183 | 2.0 | 4.0 | 0.00 | 0.00 | 0.00 | 99 | 1007.1 |
| 20260506061313 | 55 | 210 | 3.0 | 4.0 | 0.00 | 0.00 | 0.00 | 99 | 1007.3 |
| 20260506061033 | 54 | 185 | 2.0 | 5.0 | 0.00 | 0.00 | 0.00 | 99 | 1007.1 |
| 20260506051315 | 53 | 259 | 2.0 | 4.0 | 0.00 | 0.00 | 0.00 | 99 | 1007.2 |
| 20260506050810 | 53 | 283 | 4.0 | 4.0 | 0.00 | 0.00 | 0.00 | 99 | 1007.5 |
| 20260506044811 | 53 | 321 | 2.0 | 4.0 | 0.00 | 0.00 | 0.00 | 99 | 1007.8 |
| 20260506044312 | 53 | 287 | 2.0 | 4.0 | 0.00 | 0.00 | 0.00 | 99 | 1007.9 |
| 20260506044038 | 53 | 268 | 2.0 | 5.0 | 0.00 | 0.00 | 0.00 | 99 | 1007.6 |
| 20260506043529 | 53 | 275 | 2.0 | 5.0 | 0.00 | 0.00 | 0.00 | 99 | 1007.9 |
| 20260506042811 | 53 | 312 | 3.0 | 4.0 | 0.00 | 0.01 | 0.00 | 99 | 1007.5 |
| 20260506042315 | 53 | 276 | 1.0 | 4.0 | 0.00 | 0.01 | 0.00 | 99 | 1007.9 |
| 20260506041811 | 53 | 129 | 1.0 | 4.0 | 0.00 | 0.01 | 0.00 | 99 | 1007.9 |
| 20260506041312 | 53 | 268 | 1.0 | 4.0 | 0.00 | 0.02 | 0.00 | 99 | 1007.9 |
| 20260506041032 | 53 | 333 | 1.0 | 4.0 | 0.00 | 0.02 | 0.00 | 99 | 1007.8 |
| 20260506040530 | 53 | 246 | 4.0 | 4.0 | 0.00 | 0.02 | 0.00 | 99 | 1008.0 |
| 20260506040039 | 53 | 70 | 0.0 | 4.0 | 0.00 | 0.02 | 0.00 | 99 | 1007.9 |
| 20260506034312 | 53 | 202 | 1.0 | 4.0 | 0.00 | 0.02 | 0.00 | 99 | 1008.0 |
| 20260506034032 | 53 | 296 | 2.0 | 4.0 | 0.00 | 0.02 | 0.00 | 99 | 1007.8 |
| 20260506033312 | 53 | 2 | 1.0 | 4.0 | 0.00 | 0.02 | 0.00 | 99 | 1008.2 |
| 20260506032810 | 53 | 326 | 2.0 | 4.0 | 0.00 | 0.02 | 0.00 | 99 | 1008.0 |
| 20260506032315 | 53 | 269 | 2.0 | 4.0 | 0.00 | 0.02 | 0.00 | 99 | 1008.1 |
| 20260506031814 | 53 | 254 | 0.0 | 4.0 | 0.00 | 0.02 | 0.00 | 99 | 1008.3 |
| 20260506031312 | 53 | 174 | 2.0 | 4.0 | 0.00 | 0.02 | 0.00 | 99 | 1008.1 |
| 20260506030811 | 53 | 245 | 2.0 | 3.0 | 0.00 | 0.02 | 0.00 | 99 | 1008.4 |
| 20260506030312 | 53 | 275 | 2.0 | 4.0 | 0.00 | 0.02 | 0.00 | 99 | 1008.5 |
| 20260506025811 | 53 | 269 | 2.0 | 4.0 | 0.00 | 0.02 | 0.00 | 99 | 1008.7 |
| 20260506025312 | 53 | 256 | 3.0 | 4.0 | 0.00 | 0.02 | 0.00 | 99 | 1008.7 |
| 20260506024810 | 53 | 282 | 2.0 | 3.0 | 0.00 | 0.02 | 0.00 | 99 | 1008.9 |
| 20260506024312 | 53 | 299 | 2.0 | 3.0 | 0.00 | 0.02 | 0.00 | 99 | 1009.0 |
| 20260506023811 | 53 | 269 | 0.0 | 3.0 | 0.00 | 0.02 | 0.00 | 99 | 1009.0 |
| 20260506023312 | 53 | 317 | 1.0 | 3.0 | 0.00 | 0.02 | 0.00 | 99 | 1009.1 |
| 20260506023028 | 53 | 244 | 2.0 | 4.0 | 0.00 | 0.02 | 0.00 | 99 | 1009.0 |
| 20260506022312 | 53 | 262 | 2.0 | 4.0 | 0.00 | 0.02 | 0.00 | 99 | 1009.3 |
| 20260506021814 | 53 | 304 | 2.0 | 4.0 | 0.00 | 0.02 | 0.00 | 99 | 1009.4 |
| 20260506021532 | 53 | 236 | 1.0 | 4.0 | 0.00 | 0.02 | 0.00 | 99 | 1009.3 |
| 20260506021036 | 53 | 288 | 2.0 | 4.0 | 0.00 | 0.02 | 0.00 | 99 | 1009.2 |
| 20260506020312 | 53 | 251 | 2.0 | 3.0 | 0.00 | 0.02 | 0.00 | 99 | 1009.2 |
| 20260506015312 | 53 | 281 | 2.0 | 3.0 | 0.00 | 0.02 | 0.00 | 99 | 1009.2 |
| 20260506014811 | 53 | 289 | 2.0 | 3.0 | 0.00 | 0.02 | 0.00 | 99 | 1009.4 |
| 20260506014312 | 53 | 275 | 2.0 | 3.0 | 0.00 | 0.02 | 0.00 | 99 | 1009.4 |
| 20260506014032 | 53 | 264 | 2.0 | 3.0 | 0.00 | 0.02 | 0.00 | 99 | 1009.4 |
| 20260506013312 | 53 | 237 | 2.0 | 3.0 | 0.00 | 0.02 | 0.00 | 99 | 1009.3 |
| 20260506012532 | 53 | 263 | 2.0 | 4.0 | 0.00 | 0.02 | 0.00 | 99 | 1009.2 |
| 20260506011312 | 52 | 267 | 2.0 | 3.0 | 0.00 | 0.02 | 0.00 | 99 | 1009.6 |
| 20260506010811 | 52 | 281 | 2.0 | 3.0 | 0.00 | 0.02 | 0.00 | 99 | 1009.6 |
| 20260506005312 | 52 | 259 | 2.0 | 4.0 | 0.00 | 0.02 | 0.00 | 99 | 1009.9 |
| 20260506004811 | 52 | 246 | 1.0 | 4.0 | 0.00 | 0.02 | 0.00 | 99 | 1010.0 |
| 20260506004312 | 52 | 242 | 0.0 | 3.0 | 0.00 | 0.02 | 0.00 | 99 | 1009.9 |
| 20260506004036 | 52 | 283 | 2.0 | 3.0 | 0.00 | 0.02 | 0.00 | 99 | 1010.2 |
| 20260506003312 | 52 | 260 | 0.0 | 3.0 | 0.00 | 0.02 | 0.00 | 99 | 1010.2 |
| 20260506003037 | 52 | 255 | 2.0 | 3.0 | 0.00 | 0.02 | 0.00 | 99 | 1010.1 |
| 20260506001811 | 53 | 254 | 2.0 | 4.0 | 0.00 | 0.02 | 0.00 | 99 | 1010.1 |
| 20260506001313 | 53 | 269 | 2.0 | 4.0 | 0.00 | 0.02 | 0.00 | 99 | 1010.3 |
| 20260506000539 | 53 | 276 | 2.0 | 3.0 | 0.00 | 0.02 | 0.00 | 99 | 1010.2 |
| 20260505235532 | 53 | 268 | 2.0 | 4.0 | 0.00 | 0.02 | 0.00 | 99 | 1010.2 |
| 20260505234813 | 53 | 240 | 1.0 | 4.0 | 0.00 | 0.02 | 0.00 | 99 | 1010.3 |
| 20260505234316 | 52 | 316 | 0.0 | 4.0 | 0.00 | 0.02 | 0.00 | 99 | 1010.4 |
| 20260505233809 | 52 | 204 | 2.0 | 4.0 | 0.00 | 0.02 | 0.00 | 99 | 1010.5 |
| 20260505233536 | 52 | 286 | 1.0 | 4.0 | 0.00 | 0.02 | 0.00 | 99 | 1010.4 |
| 20260505232311 | 52 | 299 | 2.0 | 3.0 | 0.00 | 0.02 | 0.00 | 99 | 1010.5 |
| 20260505231809 | 52 | 279 | 1.0 | 2.0 | 0.00 | 0.02 | 0.00 | 99 | 1010.5 |
| 20260505231311 | 52 | 275 | 0.0 | 2.0 | 0.00 | 0.02 | 0.00 | 99 | 1010.6 |
| 20260505231032 | 52 | 256 | 0.0 | 2.0 | 0.00 | 0.02 | 0.00 | 99 | 1010.6 |
| 20260505230311 | 53 | 267 | 0.0 | 2.0 | 0.00 | 0.02 | 0.00 | 99 | 1010.8 |
| 20260505230031 | 52 | 272 | 1.0 | 3.0 | 0.00 | 0.02 | 0.00 | 99 | 1010.9 |
| 20260505225534 | 53 | 290 | 2.0 | 4.0 | 0.00 | 0.02 | 0.00 | 99 | 1010.9 |
| 20260505224810 | 53 | 315 | 1.0 | 4.0 | 0.00 | 0.02 | 0.00 | 99 | 1010.9 |
| 20260505224311 | 53 | 280 | 1.0 | 4.0 | 0.00 | 0.02 | 0.00 | 99 | 1011.1 |
| 20260505223810 | 53 | 279 | 1.0 | 3.0 | 0.00 | 0.02 | 0.00 | 99 | 1010.9 |
| 20260505223530 | 53 | 249 | 1.0 | 3.0 | 0.00 | 0.02 | 0.00 | 99 | 1010.9 |
| 20260505223035 | 53 | 282 | 0.0 | 4.0 | 0.00 | 0.02 | 0.00 | 99 | 1011.1 |
| 20260505222530 | 53 | 285 | 1.0 | 4.0 | 0.00 | 0.02 | 0.00 | 99 | 1011.1 |
| 20260505221813 | 52 | 245 | 0.0 | 4.0 | 0.00 | 0.02 | 0.00 | 99 | 1010.9 |
| 20260505215810 | 53 | 240 | 0.0 | 3.0 | 0.00 | 0.02 | 0.02 | 99 | 1011.0 |
| 20260505215540 | 53 | 204 | 1.0 | 3.0 | 0.00 | 0.02 | 0.02 | 99 | 1011.1 |
| 20260505215031 | 53 | 250 | 2.0 | 3.0 | 0.00 | 0.02 | 0.02 | 99 | 1011.2 |
| 20260505213809 | 53 | 278 | 1.0 | 3.0 | 0.00 | 0.02 | 0.02 | 99 | 1011.2 |
| 20260505213312 | 53 | 261 | 2.0 | 3.0 | 0.00 | 0.02 | 0.02 | 99 | 1011.4 |
| 20260505212813 | 53 | 262 | 0.0 | 3.0 | 0.00 | 0.02 | 0.02 | 99 | 1011.6 |
| 20260505212532 | 53 | 275 | 2.0 | 3.0 | 0.00 | 0.02 | 0.02 | 99 | 1011.5 |
| 20260505212041 | 53 | 259 | 2.0 | 3.0 | 0.00 | 0.02 | 0.02 | 99 | 1011.6 |
| 20260505211534 | 53 | 246 | 2.0 | 3.0 | 0.00 | 0.02 | 0.02 | 99 | 1011.9 |
| 20260505211035 | 53 | 102 | 0.0 | 3.0 | 0.00 | 0.02 | 0.02 | 99 | 1011.8 |
| 20260505210312 | 53 | 98 | 0.0 | 3.0 | 0.00 | 0.02 | 0.02 | 99 | 1011.7 |
| 20260505205809 | 53 | 261 | 0.0 | 4.0 | 0.00 | 0.02 | 0.02 | 99 | 1011.7 |
| 20260505205541 | 53 | 274 | 1.0 | 4.0 | 0.00 | 0.02 | 0.02 | 99 | 1011.5 |
| 20260505205037 | 53 | 212 | 0.0 | 3.0 | 0.00 | 0.02 | 0.02 | 99 | 1011.8 |
| 20260505204311 | 53 | 267 | 1.0 | 3.0 | 0.00 | 0.02 | 0.02 | 99 | 1011.7 |
| 20260505203810 | 53 | 285 | 0.0 | 3.0 | 0.00 | 0.02 | 0.02 | 99 | 1011.8 |
| 20260505202810 | 53 | 267 | 1.0 | 3.0 | 0.00 | 0.02 | 0.02 | 99 | 1011.8 |
| 20260505201810 | 53 | 252 | 0.0 | 5.0 | 0.00 | 0.02 | 0.02 | 99 | 1012.0 |
| 20260505201536 | 53 | 253 | 3.0 | 5.0 | 0.00 | 0.02 | 0.02 | 99 | 1011.8 |
| 20260505201031 | 53 | 257 | 2.0 | 4.0 | 0.00 | 0.02 | 0.02 | 99 | 1011.8 |
| 20260505200312 | 53 | 228 | 2.0 | 4.0 | 0.00 | 0.02 | 0.02 | 99 | 1011.9 |